Weather History for Anaktuvuk Pass, AK

Change the Weather History Date:

Friday, June 7, 2013

  Actual Average Record
Temperature  
Mean Temperature 46 °F -  
Max Temperature 57 °F 54 °F 69 °F (2007)
Min Temperature 35 °F 36 °F 30 °F (2001)
Degree Days  
Heating Degree Days 19    
Moisture  
Dew Point 33 °F    
Average Humidity 59    
Maximum Humidity 81    
Minimum Humidity 38    
Precipitation  
Precipitation 0.06 in - - ()
Sea Level Pressure  
Sea Level Pressure 29.87 in    
Wind  
Wind Speed 5 mph (NE)    
Max Wind Speed 14 mph    
Max Gust Speed 17 mph    
Visibility 10 miles    
Events      
Averages and records for this station are not official NWS values.
T = Trace of Precipitation, MM = Missing Value Source: NWS Daily Summary

Daily Weather History Graph

Daily Weather History Graph

Search for Another Location

Airport:

Trip Planner

Search our weather history database for the weather conditions in past years. The results will help you decide how hot, cold, wet, or windy it might be!

Date:

Astronomy

Jun. 07, 2013 Rise Set
Actual Time 2:38 AM AKDT 1:33 AM AKDT
Civil Twilight Sun does not rise Sun does not rise
Nautical Twilight Sun does not rise Sun does not rise
Astronomical Twilight Sun does not rise Sun does not rise
Moon 3:08 AM AKDT (6/7) No Moon Set
Length of Visible Light 24h 00m
Length of Day
22h 55m
Waning Crescent, 1% of the Moon is Illuminated
Jun 7
Waning Crescent
Jun 8
New
Jun 16
First Quarter
Jun 23
Full
Jun 29
Last Quarter

Hourly Weather History & Observations

Time (AKDT) Temp. Windchill Dew Point Humidity Pressure Visibility Wind Dir Wind Speed Gust Speed Precip Events Conditions
12:16 AM 42.8 °F 38.6 °F 33.8 °F 70% 29.83 in 10.0 mi ENE 6.9 mph - N/A   Overcast
12:36 AM 41.0 °F 35.2 °F 33.8 °F 76% 29.83 in 10.0 mi ENE 9.2 mph - N/A   Overcast
12:56 AM 41.0 °F 35.2 °F 33.8 °F 76% 29.84 in 10.0 mi ENE 9.2 mph - N/A   Overcast
1:16 AM 41.0 °F 36.4 °F 32.0 °F 70% 29.84 in 10.0 mi ENE 6.9 mph - N/A   Overcast
1:36 AM 41.0 °F 37.1 °F 33.8 °F 76% 29.85 in 10.0 mi NE 5.8 mph - N/A   Overcast
1:56 AM 39.2 °F 35.9 °F 33.8 °F 81% 29.85 in 10.0 mi NNW 4.6 mph - N/A   Overcast
2:16 AM 39.2 °F 35.0 °F 32.0 °F 75% 29.85 in 10.0 mi NNE 5.8 mph - N/A   Overcast
2:36 AM 37.4 °F 33.8 °F 32.0 °F 81% 29.85 in 10.0 mi NNE 4.6 mph - N/A   Overcast
2:56 AM 37.4 °F 33.8 °F 30.2 °F 75% 29.85 in 10.0 mi North 4.6 mph - N/A   Scattered Clouds
3:16 AM 37.4 °F 33.8 °F 30.2 °F 75% 29.86 in 10.0 mi NNE 4.6 mph - N/A   Scattered Clouds
3:36 AM 37.4 °F 33.8 °F 30.2 °F 75% 29.86 in 10.0 mi North 4.6 mph - N/A   Mostly Cloudy
3:56 AM 37.4 °F 34.9 °F 30.2 °F 75% 29.86 in 10.0 mi North 3.5 mph - N/A   Mostly Cloudy
4:16 AM 37.4 °F - 30.2 °F 75% 29.86 in 10.0 mi Calm Calm - N/A   Mostly Cloudy
4:36 AM 37.4 °F - 30.2 °F 75% 29.86 in 10.0 mi Calm Calm - N/A   Scattered Clouds
4:56 AM 35.6 °F - 28.4 °F 75% 29.86 in 10.0 mi Calm Calm - N/A   Clear
5:16 AM 35.6 °F 32.8 °F 28.4 °F 75% 29.87 in 10.0 mi North 3.5 mph - N/A   Mostly Cloudy
5:36 AM 35.6 °F - 28.4 °F 75% 29.87 in 10.0 mi Calm Calm - N/A   Overcast
5:56 AM 37.4 °F - 30.2 °F 75% 29.87 in 10.0 mi Calm Calm - N/A   Scattered Clouds
6:16 AM 39.2 °F - 30.2 °F 70% 29.87 in 10.0 mi Calm Calm - N/A   Clear
6:36 AM 41.0 °F - 32.0 °F 70% 29.87 in 10.0 mi Calm Calm - N/A   Clear
6:56 AM 42.8 °F - 33.8 °F 70% 29.87 in 10.0 mi Calm Calm - N/A   Clear
7:16 AM 42.8 °F 41.1 °F 32.0 °F 66% 29.87 in 10.0 mi NNW 3.5 mph - N/A   Clear
7:36 AM 44.6 °F - 32.0 °F 61% 29.87 in 10.0 mi Calm Calm - N/A   Clear
7:56 AM 44.6 °F - 30.2 °F 57% 29.87 in 10.0 mi Calm Calm - N/A   Partly Cloudy
8:16 AM 46.4 °F - 30.2 °F 53% 29.87 in 10.0 mi Calm Calm - N/A   Clear
8:36 AM 46.4 °F 45.2 °F 30.2 °F 53% 29.87 in 10.0 mi East 3.5 mph - N/A   Partly Cloudy
8:56 AM 46.4 °F - 30.2 °F 53% 29.86 in 10.0 mi Calm Calm - N/A   Partly Cloudy
9:16 AM 46.4 °F 45.2 °F 32.0 °F 57% 29.86 in 10.0 mi East 3.5 mph - N/A   Partly Cloudy
9:36 AM 48.2 °F - 32.0 °F 54% 29.86 in 10.0 mi East 3.5 mph - N/A   Clear
9:56 AM 48.2 °F - 32.0 °F 54% 29.86 in 10.0 mi Calm Calm - N/A   Clear
10:16 AM 50.0 °F - 30.2 °F 47% 29.86 in 10.0 mi Calm Calm - N/A   Clear
10:36 AM 50.0 °F - 30.2 °F 47% 29.86 in 10.0 mi Calm Calm - N/A   Clear
10:56 AM 51.8 °F - 30.2 °F 44% 29.86 in 9.0 mi Calm Calm - N/A   Clear
11:16 AM 53.6 °F - 32.0 °F 44% 29.86 in 10.0 mi East 5.8 mph - N/A   Clear
11:36 AM 53.6 °F - 30.2 °F 41% 29.86 in 10.0 mi NNE 5.8 mph - N/A   Clear
11:56 AM 53.6 °F - 30.2 °F 41% 29.86 in 10.0 mi North 5.8 mph - N/A   Clear
12:16 PM 53.6 °F - 30.2 °F 41% 29.86 in 10.0 mi ESE 4.6 mph - N/A   Clear
12:36 PM 55.4 °F - 30.2 °F 38% 29.86 in 10.0 mi NE 4.6 mph - N/A   Clear
12:56 PM 55.4 °F - 30.2 °F 38% 29.86 in 9.0 mi ENE 6.9 mph - N/A   Clear
1:16 PM 55.4 °F - 30.2 °F 38% 29.86 in 10.0 mi NE 6.9 mph - N/A   Clear
1:36 PM 55.4 °F - 30.2 °F 38% 29.86 in 10.0 mi East 3.5 mph - N/A   Mostly Cloudy
1:56 PM 57.2 °F - 32.0 °F 38% 29.86 in 10.0 mi North 6.9 mph - N/A   Overcast
2:16 PM 57.2 °F - 32.0 °F 38% 29.86 in 10.0 mi NNE 13.8 mph 17.3 mph N/A   Overcast
2:36 PM 55.4 °F - 33.8 °F 44% 29.86 in 9.0 mi NNE 10.4 mph - N/A   Overcast
2:56 PM 57.2 °F - 33.8 °F 41% 29.86 in 10.0 mi NNE 11.5 mph 16.1 mph N/A   Overcast
3:16 PM 55.4 °F - 32.0 °F 41% 29.86 in 10.0 mi NNE 10.4 mph - N/A   Overcast
3:36 PM 55.4 °F - 32.0 °F 41% 29.87 in 10.0 mi NNE 6.9 mph - N/A   Overcast
3:56 PM 55.4 °F - 32.0 °F 41% 29.87 in 10.0 mi NE 9.2 mph - N/A   Mostly Cloudy
4:16 PM 55.4 °F - 32.0 °F 41% 29.87 in 9.0 mi NNW 4.6 mph - N/A   Mostly Cloudy
4:36 PM 55.4 °F - 33.8 °F 44% 29.87 in 10.0 mi ENE 5.8 mph - N/A   Overcast
4:56 PM 57.2 °F - 33.8 °F 41% 29.86 in 10.0 mi NNE 6.9 mph - N/A   Overcast
5:16 PM 55.4 °F - 33.8 °F 44% 29.86 in 10.0 mi North 9.2 mph - N/A   Mostly Cloudy
5:36 PM 55.4 °F - 33.8 °F 44% 29.86 in 10.0 mi NNE 9.2 mph - N/A   Mostly Cloudy
5:56 PM 55.4 °F - 33.8 °F 44% 29.86 in 10.0 mi NE 12.7 mph - N/A   Scattered Clouds
6:16 PM 57.2 °F - 33.8 °F 41% 29.86 in 10.0 mi NE 6.9 mph - N/A   Mostly Cloudy
6:36 PM 55.4 °F - 33.8 °F 44% 29.86 in 10.0 mi NNE 8.1 mph - N/A   Mostly Cloudy
6:56 PM 55.4 °F - 33.8 °F 44% 29.86 in 10.0 mi ENE 8.1 mph - N/A   Overcast
7:16 PM 51.8 °F - 35.6 °F 54% 29.88 in 9.0 mi SSW 12.7 mph - N/A   Overcast
7:36 PM 48.2 °F - 39.2 °F 71% 29.89 in 8.0 mi SSW 11.5 mph - N/A   Overcast
7:56 PM 48.2 °F - 39.2 °F 71% 29.89 in 7.0 mi SSE 4.6 mph - 0.02 in   Overcast
8:16 PM 48.2 °F - 39.2 °F 71% 29.89 in 10.0 mi Calm Calm - N/A   Overcast
8:36 PM 48.2 °F - 39.2 °F 71% 29.89 in 10.0 mi Calm Calm - N/A   Overcast
8:56 PM 50.0 °F - 37.4 °F 62% 29.89 in 10.0 mi Calm Calm - N/A   Mostly Cloudy
9:16 PM 51.8 °F - 39.2 °F 62% 29.89 in 10.0 mi Calm Calm - N/A   Scattered Clouds
9:36 PM 51.8 °F - 37.4 °F 58% 29.89 in 10.0 mi Calm Calm - N/A   Mostly Cloudy
9:56 PM 50.0 °F - 39.2 °F 66% 29.89 in 10.0 mi Calm Calm - N/A   Overcast
10:16 PM 50.0 °F - 37.4 °F 62% 29.89 in 10.0 mi Calm Calm - N/A   Overcast
10:36 PM 48.2 °F - 39.2 °F 71% 29.89 in 10.0 mi Calm Calm - N/A   Mostly Cloudy
10:56 PM 48.2 °F - 39.2 °F 71% 29.90 in 10.0 mi Calm Calm - N/A   Overcast
11:16 PM 48.2 °F - 37.4 °F 66% 29.91 in 8.0 mi WNW 6.9 mph - 0.01 in   Overcast
11:36 PM 46.4 °F 45.2 °F 39.2 °F 76% 29.91 in 5.0 mi SE 3.5 mph - 0.04 in   Overcast
11:56 PM 44.6 °F - 39.2 °F 81% 29.91 in 10.0 mi Calm Calm - 0.04 in   Overcast